User: anonymous   Login
Location: Caltech
(34.1382°N, 118.1253°W)
Time: 20:01:04
(UTC-08:00)
Language:

Hamsat - Orbit

View from above orbital plane
View from above orbital plane
View from above satellite
View from above satellite

Ground track
Ground track

The orbit data is extracted from the following two-line orbital elements,

1 28650U 05017B   14354.15520078  .00002260  00000-0  26054-3 0  9359
2 28650 097.5648 349.9625 0022952 263.5684 096.2919 14.86447237520845
Epoch (UTC): 20 December 2014 03:43:29
Eccentricity: 0.0022952
inclination: 97.5648°
perigee height: 593 km
apogee height: 625 km
right ascension of ascending node: 349.9625°
argument of perigee: 263.5684°
revolutions per day: 14.86447237
mean anomaly at epoch: 96.2919°
orbit number at epoch: 52084

The dashed part of the orbit path shows where the satellite is in the earth's shadow,  

DLR